H1 CPF 2 NER 2023 2 11 9 042 01 glonass143 H2 2007501 9143 46805 2023 2 11 0 0 0 2023 2 14 23 45 0 900 1 1 0 0 0 1 H9 10 0 59986 0.00000 0 -2264741.058 25307717.590 2327498.121 10 0 59986 900.00000 0 -2113546.913 24827945.760 5491461.195 10 0 59986 1800.00000 0 -2019185.117 23956320.556 8548836.372 10 0 59986 2700.00000 0 -2033012.576 22716908.770 11440291.706 10 0 59986 3600.00000 0 -2200800.390 21145719.605 14109721.467 10 0 59986 4500.00000 0 -2560565.336 19289281.105 16505332.086 10 0 59986 5400.00000 0 -3140733.448 17202795.132 18580643.742 10 0 59986 6300.00000 0 -3958713.566 14947947.791 20295388.529 10 0 59986 7200.00000 0 -5019941.519 12590466.405 21616288.262 10 0 59986 8100.00000 0 -6317435.891 10197524.406 22517697.364 10 0 59986 9000.00000 0 -7831885.001 7835101.605 22982098.874 10 0 59986 9900.00000 0 -9532262.577 5565409.003 23000444.338 10 0 59986 10800.00000 0 -11376947.633 3444484.450 22572331.187 10 0 59986 11700.00000 0 -13315303.104 1520058.297 21706014.139 10 0 59986 12600.00000 0 -15289648.566 -170222.953 20418250.124 10 0 59986 13500.00000 0 -17237545.890 -1600141.886 18733979.228 10 0 59986 14400.00000 0 -19094303.371 -2755768.975 16685847.181 10 0 59986 15300.00000 0 -20795594.419 -3635799.826 14313577.882 10 0 59986 16200.00000 0 -22280081.752 -4251357.423 11663207.398 10 0 59986 17100.00000 0 -23491937.366 -4625268.386 8786193.643 10 0 59986 18000.00000 0 -24383152.483 -4790844.275 5738418.604 10 0 59986 18900.00000 0 -24915540.169 -4790220.013 2579102.313 10 0 59986 19800.00000 0 -25062345.933 -4672320.236 -630350.278 10 0 59986 20700.00000 0 -24809397.947 -4490540.325 -3827546.690 10 0 59986 21600.00000 0 -24155747.871 -4300241.096 -6950324.748 10 0 59986 22500.00000 0 -23113774.744 -4156164.117 -9937966.502 10 0 59986 23400.00000 0 -21708747.139 -4109878.067 -12732383.842 10 0 59986 24300.00000 0 -19977861.697 -4207365.184 -15279252.118 10 0 59986 25200.00000 0 -17968798.271 -4486850.882 -17529069.246 10 0 59986 26100.00000 0 -15737852.245 -4976969.126 -19438119.369 10 0 59986 27000.00000 0 -13347722.315 -5695341.845 -20969322.317 10 0 59986 27900.00000 0 -10865046.238 -6647633.039 -22092952.550 10 0 59986 28800.00000 0 -8357787.435 -7827118.061 -22787213.943 10 0 59986 29700.00000 0 -5892581.267 -9214786.847 -23038659.714 10 0 59986 30600.00000 0 -3532151.126 -10779977.363 -22842449.847 10 0 59986 31500.00000 0 -1332901.415 -12481513.321 -22202441.425 10 0 59986 32400.00000 0 657213.258 -14269299.035 -21131110.465 10 0 59986 33300.00000 0 2400454.960 -16086305.243 -19649306.971 10 0 59986 34200.00000 0 3870632.958 -17870863.223 -17785847.984 10 0 59986 35100.00000 0 5053943.773 -19559171.633 -15576956.501 10 0 59986 36000.00000 0 5949287.126 -21087911.496 -13065556.954 10 0 59986 36900.00000 0 6568046.014 -22396860.028 -10300440.818 10 0 59986 37800.00000 0 6933341.627 -23431393.949 -7335318.384 10 0 59986 38700.00000 0 7078795.811 -24144777.395 -4227775.059 10 0 59986 39600.00000 0 7046854.378 -24500138.420 -1038152.526 10 0 59986 40500.00000 0 6886743.111 -24472051.108 2171623.356 10 0 59986 41400.00000 0 6652143.607 -24047656.786 5339244.986 10 0 59986 42300.00000 0 6398687.932 -23227277.182 8403232.151 10 0 59986 43200.00000 0 6181378.506 -22024493.671 11304124.213 10 0 59986 44100.00000 0 6052042.706 -20465689.147 13985632.140 10 0 59986 45000.00000 0 6056930.035 -18589071.490 16395728.042 10 0 59986 45900.00000 0 6234553.564 -16443219.264 18487651.309 10 0 59986 46800.00000 0 6613866.954 -14085209.969 20220812.202 10 0 59986 47700.00000 0 7212854.191 -11578408.531 21561575.852 10 0 59986 48600.00000 0 8037591.840 -8990007.552 22483911.988 10 0 59986 49500.00000 0 9081823.839 -6388420.952 22969898.327 10 0 59986 50400.00000 0 10327067.521 -3840638.587 23010068.229 10 0 59986 51300.00000 0 11743247.373 -1409650.898 22603596.104 10 0 59986 52200.00000 0 13289831.146 847950.378 21758316.941 10 0 59986 53100.00000 0 14917421.904 2884096.558 20490579.328 10 0 59986 54000.00000 0 16569740.529 4661004.011 18824934.308 10 0 59986 54900.00000 0 18185916.735 6152501.250 16793665.416 10 0 59986 55800.00000 0 19702993.442 7344866.538 14436168.288 10 0 59986 56700.00000 0 21058540.125 8237141.754 11798191.103 10 0 59986 57600.00000 0 22193265.733 8840910.080 8930949.947 10 0 59986 58500.00000 0 23053521.395 9179547.519 5890135.846 10 0 59986 59400.00000 0 23593587.362 9286980.466 2734832.557 10 0 59986 60300.00000 0 23777647.384 9206002.407 -473633.800 10 0 59986 61200.00000 0 23581366.668 8986221.648 -3672890.516 10 0 59986 62100.00000 0 22993006.150 8681727.634 -6800735.679 10 0 59986 63000.00000 0 22014025.358 8348575.517 -9796352.843 10 0 59986 63900.00000 0 20659147.768 8042196.314 -12601498.555 10 0 59986 64800.00000 0 18955885.272 7814843.195 -15161639.067 10 0 59986 65700.00000 0 16943541.290 7713182.753 -17427013.568 10 0 59986 66600.00000 0 14671733.995 7776133.881 -19353602.980 10 0 59986 67500.00000 0 12198501.288 8033046.170 -20903985.424 10 0 59986 68400.00000 0 9588066.545 8502295.276 -22048061.894 10 0 59986 69300.00000 0 6908358.255 9190354.866 -22763638.365 10 0 59986 70200.00000 0 4228386.674 10091384.650 -23036853.505 10 0 59986 71100.00000 0 1615586.305 11187352.157 -22862444.144 10 0 59986 72000.00000 0 -866765.723 12448683.491 -22243843.818 10 0 59986 72900.00000 0 -3161948.782 13835416.094 -21193112.805 10 0 59986 73800.00000 0 -5221916.534 15298805.532 -19730701.209 10 0 59986 74700.00000 0 -7009046.309 16783319.234 -17885049.768 10 0 59986 75600.00000 0 -8497448.500 18228933.887 -15692036.051 10 0 59986 76500.00000 0 -9673782.717 19573640.403 -13194276.652 10 0 59986 77400.00000 0 -10537548.018 20756051.488 -10440298.760 10 0 59986 78300.00000 0 -11100836.556 21718002.447 -7483597.068 10 0 59986 79200.00000 0 -11387562.412 22407035.995 -4381594.232 10 0 59986 80100.00000 0 -11432199.334 22778666.539 -1194525.158 10 0 59986 81000.00000 0 -11278081.794 22798328.602 2015733.082 10 0 59986 81900.00000 0 -10975341.994 22442927.261 5186862.799 10 0 59986 82800.00000 0 -10578570.776 21701925.161 8257315.091 10 0 59986 83700.00000 0 -10144301.883 20577920.125 11167503.436 10 0 59986 84600.00000 0 -9728426.267 19086688.776 13860958.231 10 0 59986 85500.00000 0 -9383645.986 17256693.919 16285419.864 10 0 59987 0.00000 0 -9157075.315 15128076.031 18393849.188 10 0 59987 900.00000 0 -9088090.253 12751169.248 20145337.227 10 0 59987 1800.00000 0 -9206517.413 10184606.018 21505894.172 10 0 59987 2700.00000 0 -9531238.245 7493084.854 22449106.705 10 0 59987 3600.00000 0 -10069267.891 4744895.943 22956648.508 10 0 59987 4500.00000 0 -10815347.640 2009305.488 23018635.629 10 0 59987 5400.00000 0 -11752068.718 -646093.425 22633819.871 10 0 59987 6300.00000 0 -12850522.994 -3157954.422 21809616.411 10 0 59987 7200.00000 0 -14071454.205 -5469570.009 20561964.889 10 0 59987 8100.00000 0 -15366862.391 -7532983.801 18915026.145 10 0 59987 9000.00000 0 -16681995.165 -9310735.852 16900719.850 10 0 59987 9900.00000 0 -17957643.053 -10777169.103 14558111.215 10 0 59987 10800.00000 0 -19132643.129 -11919243.154 11932657.954 10 0 59987 11700.00000 0 -20146486.045 -12736821.999 9075331.403 10 0 59987 12600.00000 0 -20941916.783 -13242424.286 6041628.457 10 0 59987 13500.00000 0 -21467419.388 -13460447.277 2890493.273 10 0 59987 14400.00000 0 -21679480.399 -13425897.839 -316830.272 10 0 59987 15300.00000 0 -21544534.807 -13182684.751 -3517992.654 10 0 59987 16200.00000 0 -21040511.575 -12781545.206 -6650755.599 10 0 59987 17100.00000 0 -20157912.583 -12277694.012 -9654207.438 10 0 59987 18000.00000 0 -18900378.609 -11728295.776 -12469952.524 10 0 59987 18900.00000 0 -17284717.621 -11189867.817 -15043250.935 10 0 59987 19800.00000 0 -15340393.439 -10715724.418 -17324085.791 10 0 59987 20700.00000 0 -13108495.613 -10353571.114 -19268137.086 10 0 59987 21600.00000 0 -10640233.174 -10143351.128 -20837643.066 10 0 59987 22500.00000 0 -7995014.802 -10115435.229 -22002132.564 10 0 59987 23400.00000 0 -5238195.239 -10289231.548 -22739014.386 10 0 59987 24300.00000 0 -2438581.460 -10672274.039 -23034012.767 10 0 59987 25200.00000 0 334198.039 -11259828.005 -22881440.938 10 0 59987 26100.00000 0 3012351.952 -12035029.302 -22284307.918 10 0 59987 27000.00000 0 5532503.054 -12969551.408 -21254256.810 10 0 59987 27900.00000 0 7838077.001 -14024772.400 -19811336.004 10 0 59987 28800.00000 0 9881404.644 -15153392.900 -17983607.771 10 0 59987 29700.00000 0 11625451.477 -16301437.120 -15806601.813 10 0 59987 30600.00000 0 13045103.394 -17410553.033 -13322624.179 10 0 59987 31500.00000 0 14127956.361 -18420515.019 -10579934.849 10 0 59987 32400.00000 0 14874578.347 -19271823.742 -7631809.799 10 0 59987 33300.00000 0 15298233.955 -19908293.808 -4535505.679 10 0 59987 34200.00000 0 15424084.583 -20279520.103 -1351147.293 10 0 59987 35100.00000 0 15287899.030 -20343118.772 1859440.386 10 0 59987 36000.00000 0 14934329.935 -20066648.167 5033932.800 10 0 59987 36900.00000 0 14414829.654 -19429128.537 8110715.388 10 0 59987 37800.00000 0 13785294.232 -18422096.127 11030078.502 10 0 59987 38700.00000 0 13103535.427 -17050146.838 13735374.378 10 0 59987 39600.00000 0 12426687.760 -15330946.103 16174113.716 10 0 59987 40500.00000 0 11808660.136 -13294703.863 18298980.788 10 0 59987 41400.00000 0 11297739.399 -10983135.868 20068747.776 10 0 59987 42300.00000 0 10934446.692 -8447953.831 21449071.060 10 0 59987 43200.00000 0 10749736.698 -5748946.423 22413154.544 10 0 59987 44100.00000 0 10763615.377 -2951729.959 22942267.709 10 0 59987 45000.00000 0 10984234.328 -125261.211 23026108.728 10 0 59987 45900.00000 0 11407499.959 2660785.461 22663005.860 10 0 59987 46800.00000 0 12017214.226 5338668.896 21859953.202 10 0 59987 47700.00000 0 12785741.550 7845150.798 20632479.889 10 0 59987 48600.00000 0 13675174.527 10123878.543 19004354.771 10 0 59987 49500.00000 0 14638950.182 12127482.924 17007131.654 10 0 59987 50400.00000 0 15623849.490 13819304.240 14679543.163 10 0 59987 51300.00000 0 16572296.593 15174675.406 12066754.228 10 0 59987 52200.00000 0 17424861.296 16181709.056 9219489.004 10 0 59987 53100.00000 0 18122859.448 16841556.198 6193047.718 10 0 59987 54000.00000 0 18610941.380 17168126.126 3046232.312 10 0 59987 54900.00000 0 18839558.661 17187279.926 -159798.207 10 0 59987 55800.00000 0 18767204.324 16935532.179 -3362720.103 10 0 59987 56700.00000 0 18362331.031 16458316.320 -6500261.233 10 0 59987 57600.00000 0 17604865.190 15807887.647 -9511417.028 10 0 59987 58500.00000 0 16487252.028 15040953.363 -12337641.738 10 0 59987 59400.00000 0 15014986.546 14216130.596 -14923991.094 10 0 59987 60300.00000 0 13206606.987 13391340.486 -17220193.698 10 0 59987 61200.00000 0 11093150.220 12621249.040 -19181629.910 10 0 59987 62100.00000 0 8717091.110 11954863.189 -20770199.166 10 0 59987 63000.00000 0 6130809.570 11433383.701 -21955059.001 10 0 59987 63900.00000 0 3394648.795 11088405.499 -22713221.732 10 0 59987 64800.00000 0 574645.073 10940541.089 -23029997.659 10 0 59987 65700.00000 0 -2259976.830 10998524.767 -22899276.688 10 0 59987 66600.00000 0 -5039439.114 11258835.024 -22323643.313 10 0 59987 67500.00000 0 -7696068.306 11705850.675 -21314323.139 10 0 59987 68400.00000 0 -10166864.891 12312533.862 -19890962.140 10 0 59987 69300.00000 0 -12395879.197 13041610.960 -18081243.050 10 0 59987 70200.00000 0 -14336295.661 13847201.517 -15920346.258 10 0 59987 71100.00000 0 -15952139.728 14676826.561 -13450265.518 10 0 59987 72000.00000 0 -17219537.295 15473711.573 -10718991.587 10 0 59987 72900.00000 0 -18127475.266 16179287.021 -7779579.527 10 0 59987 73800.00000 0 -18678032.616 16735780.904 -4689117.657 10 0 59987 74700.00000 0 -18886073.467 17088793.785 -1507618.264 10 0 59987 75600.00000 0 -18778416.253 17189747.462 1703148.244 10 0 59987 76500.00000 0 -18392514.978 16998103.673 4880852.943 10 0 59987 77400.00000 0 -17774709.075 16483258.875 7963818.136 10 0 59987 78300.00000 0 -16978116.369 15626034.795 10892213.578 10 0 59987 79200.00000 0 -16060258.541 14419701.447 13609215.868 10 0 59987 80100.00000 0 -15080519.553 12870488.937 16062108.464 10 0 59987 81000.00000 0 -14097544.252 10997565.826 18203301.234 10 0 59987 81900.00000 0 -13166686.653 8832484.060 19991250.093 10 0 59987 82800.00000 0 -12337615.057 6418112.689 21391259.369 10 0 59987 83700.00000 0 -11652174.393 3807103.796 22376151.881 10 0 59987 84600.00000 0 -11142595.226 1059953.311 22926794.283 10 0 59987 85500.00000 0 -10830124.338 -1757263.794 23032467.877 10 0 59988 0.00000 0 -10724134.124 -4575390.836 22691078.026 10 0 59988 900.00000 0 -10821748.073 -7324818.300 21909197.855 10 0 59988 1800.00000 0 -11107998.223 -9938132.468 20701945.720 10 0 59988 2700.00000 0 -11556508.036 -12352679.816 19092697.733 10 0 59988 3600.00000 0 -12130672.496 -14512937.744 17112640.639 10 0 59988 4500.00000 0 -12785286.146 -16372595.154 14800172.850 10 0 59988 5400.00000 0 -13468550.870 -17896256.511 12200164.504 10 0 59988 6300.00000 0 -14124379.118 -19060698.715 9363090.228 10 0 59988 7200.00000 0 -14694895.444 -19855628.539 6344050.969 10 0 59988 8100.00000 0 -15123030.621 -20283909.288 3201703.643 10 0 59988 9000.00000 0 -15355098.293 -20361247.523 -2880.580 10 0 59988 9900.00000 0 -15343244.552 -20115353.490 -3207406.831 10 0 59988 10800.00000 0 -15047666.040 -19584611.131 -6349572.244 10 0 59988 11700.00000 0 -14438501.740 -18816314.416 -9368282.544 10 0 59988 12600.00000 0 -13497317.425 -17864545.074 -12204845.049 10 0 59988 13500.00000 0 -12218118.960 -16787782.010 -14804114.262 10 0 59988 14400.00000 0 -10607850.603 -15646343.964 -17115567.223 10 0 59988 15300.00000 0 -8686356.305 -14499773.854 -19094287.368 10 0 59988 16200.00000 0 -6485804.638 -13404275.504 -20701837.687 10 0 59988 17100.00000 0 -4049600.572 -12410310.922 -21907006.339 10 0 59988 18000.00000 0 -1430828.846 -11560459.272 -22686410.568 10 0 59988 18900.00000 0 1309706.812 -10887627.367 -23024947.614 10 0 59988 19800.00000 0 4105767.603 -10413686.487 -22916084.380 10 0 59988 20700.00000 0 6888192.262 -10148592.237 -22361980.655 10 0 59988 21600.00000 0 9587534.560 -10090023.824 -21373443.880 10 0 59988 22500.00000 0 12136716.752 -10223557.202 -19969716.518 10 0 59988 23400.00000 0 14473589.363 -10523364.216 -18178100.260 10 0 59988 24300.00000 0 16543291.634 -10953407.753 -16033424.283 10 0 59988 25200.00000 0 18300315.198 -11469082.118 -13577367.743 10 0 59988 26100.00000 0 19710185.817 -12019229.113 -10857649.492 10 0 59988 27000.00000 0 20750693.948 -12548444.488 -7927100.622 10 0 59988 27900.00000 0 21412623.655 -12999577.136 -4842637.751 10 0 59988 28800.00000 0 21699950.352 -13316315.224 -1664157.056 10 0 59988 29700.00000 0 21629500.119 -13445749.740 1546629.342 10 0 59988 30600.00000 0 21230085.853 -13340806.839 4727391.852 10 0 59988 31500.00000 0 20541157.494 -12962445.868 7816393.199 10 0 59988 32400.00000 0 19611023.872 -12281529.850 10753685.834 10 0 59988 33300.00000 0 18494721.621 -11280289.026 13482273.638 10 0 59988 34200.00000 0 17251621.265 -9953315.124 15949215.331 10 0 59988 35100.00000 0 15942871.330 -8308043.821 18106648.403 10 0 59988 36000.00000 0 14628787.956 -6364704.179 19912714.059 10 0 59988 36900.00000 0 13366299.408 -4155736.147 21332365.658 10 0 59988 37800.00000 0 12206552.401 -1724699.272 22338045.566 10 0 59988 38700.00000 0 11192780.123 875283.149 22910217.792 10 0 59988 39600.00000 0 10358520.831 3583481.015 23037746.529 10 0 59988 40500.00000 0 9726261.142 6333835.425 22718113.497 10 0 59988 41400.00000 0 9306560.451 9057464.418 21957469.946 10 0 59988 42300.00000 0 9097692.855 11685293.541 20770522.048 10 0 59988 43200.00000 0 9085821.431 14150703.050 19180251.482 10 0 59988 44100.00000 0 9245697.503 16392082.609 17217475.949 10 0 59988 45000.00000 0 9541855.542 18355187.842 14920257.418 10 0 59988 45900.00000 0 9930253.510 19995201.062 12333168.794 10 0 59988 46800.00000 0 10360289.570 21278410.520 9506432.555 10 0 59988 47700.00000 0 10777110.040 22183438.144 6494947.598 10 0 59988 48600.00000 0 11124110.876 22701964.508 3357222.939 10 0 59988 49500.00000 0 11345526.532 22838920.794 154238.984 10 0 59988 50400.00000 0 11388996.043 22612139.850 -3051741.152 10 0 59988 51300.00000 0 11207996.905 22051481.367 -6198386.675 10 0 59988 52200.00000 0 10764042.784 21197468.429 -9224516.203 10 0 59988 53100.00000 0 10028550.979 20099493.405 -12071292.481 10 0 59988 54000.00000 0 8984299.564 18813669.385 -14683370.839 10 0 59988 54900.00000 0 7626411.513 17400418.295 -17009978.516 10 0 59988 55800.00000 0 5962823.207 15921897.808 -19005903.485 10 0 59988 56700.00000 0 4014216.510 14439375.768 -20632373.474 10 0 59988 57600.00000 0 1813416.248 13010662.765 -21857808.210 10 0 59988 58500.00000 0 -595722.587 11687710.756 -22658430.563 10 0 59988 59400.00000 0 -3159892.253 10514478.292 -23018725.164 10 0 59988 60300.00000 0 -5818309.266 9525151.448 -22931736.091 10 0 59988 61200.00000 0 -8505009.325 8742794.408 -22399198.273 10 0 59988 62100.00000 0 -11151365.326 8178485.432 -21431500.460 10 0 59988 63000.00000 0 -13688724.394 7830973.523 -20047480.680 10 0 59988 63900.00000 0 -16051054.866 7686869.270 -18274058.249 10 0 59988 64800.00000 0 -18177493.751 7721360.867 -16145709.444 10 0 59988 65700.00000 0 -20014689.254 7899424.386 -13703796.833 10 0 59988 66600.00000 0 -21518841.371 8177476.552 -10995765.154 10 0 59988 67500.00000 0 -22657356.082 8505399.708 -8074219.189 10 0 59988 68400.00000 0 -23410044.755 8828852.971 -4995901.440 10 0 59988 69300.00000 0 -23769819.277 9091771.486 -1820589.538 10 0 59988 70200.00000 0 -23742854.587 9238947.711 1390065.119 10 0 59988 71100.00000 0 -23348212.551 9218585.226 4573734.705 10 0 59988 72000.00000 0 -22616943.738 8984716.677 7668624.789 10 0 59988 72900.00000 0 -21590705.516 8499383.259 10614672.926 10 0 59988 73800.00000 0 -20319955.086 7734483.196 13354712.650 10 0 59988 74700.00000 0 -18861793.815 6673210.685 15835580.239 10 0 59988 75600.00000 0 -17277553.594 5311023.973 18009142.985 10 0 59988 76500.00000 0 -15630226.527 3656101.031 19833229.367 10 0 59988 77400.00000 0 -13981845.528 1729262.665 21272443.532 10 0 59988 78300.00000 0 -12390925.188 -436634.880 22298848.850 10 0 59988 79200.00000 0 -10910069.462 -2797813.773 22892507.827 10 0 59988 80100.00000 0 -9583845.667 -5301149.828 23041868.334 10 0 59988 81000.00000 0 -8447012.981 -7886144.950 22743988.949 10 0 59988 81900.00000 0 -7523178.873 -10487216.141 22004599.065 10 0 59988 82800.00000 0 -6823939.061 -13036207.169 20837992.421 10 0 59988 83700.00000 0 -6348536.521 -15465019.618 19266755.640 10 0 59988 84600.00000 0 -6084053.398 -17708254.832 17321336.420 10 0 59988 85500.00000 0 -6006127.524 -19705757.447 15039458.990 10 0 59989 0.00000 0 -6080163.135 -21404954.843 12465397.658 10 0 59989 900.00000 0 -6262984.727 -22762895.962 9649120.405 10 0 59989 1800.00000 0 -6504863.902 -23747902.110 6645322.175 10 0 59989 2700.00000 0 -6751833.467 -24340763.611 3512361.768 10 0 59989 3600.00000 0 -6948190.388 -24535429.686 311126.346 10 0 59989 4500.00000 0 -7039081.090 -24339163.479 -2896155.363 10 0 59989 5400.00000 0 -6973058.842 -23772155.589 -6047127.391 10 0 59989 6300.00000 0 -6704503.995 -22866612.490 -9080524.117 10 0 59989 7200.00000 0 -6195803.563 -21665358.513 -11937366.668 10 0 59989 8100.00000 0 -5419196.818 -20220010.618 -14562114.186 10 0 59989 9000.00000 0 -4358207.738 -18588803.225 -16903747.044 10 0 59989 9900.00000 0 -3008602.756 -16834155.050 -18916760.562 10 0 59989 10800.00000 0 -1378832.315 -15020080.583 -20562049.775 10 0 59989 11700.00000 0 510063.353 -13209555.088 -21807668.215 10 0 59989 12600.00000 0 2625081.282 -11461943.721 -22629446.212 10 0 59989 13500.00000 0 4922390.312 -9830602.243 -23011457.176 10 0 59989 14400.00000 0 7348926.558 -8360749.353 -22946323.272 10 0 59989 15300.00000 0 9844384.002 -7087698.976 -22435355.027 10 0 59989 16200.00000 0 12343517.946 -6035525.561 -21488522.512 10 0 59989 17100.00000 0 14778666.061 -5216217.191 -20124258.896 10 0 59989 18000.00000 0 17082382.620 -4629350.799 -18369100.282 10 0 59989 18900.00000 0 19190076.766 -4262301.896 -16257168.755 10 0 59989 19800.00000 0 21042545.414 -4090978.833 -13829508.553 10 0 59989 20700.00000 0 22588295.593 -4081049.626 -11133288.082 10 0 59989 21600.00000 0 23785559.764 -4189608.683 -8220883.134 10 0 59989 22500.00000 0 24603920.373 -4367212.313 -5148859.004 10 0 59989 23400.00000 0 25025476.105 -4560196.330 -1976871.345 10 0 59989 24300.00000 0 25045501.532 -4713177.207 1233492.806 10 0 59989 25200.00000 0 24672573.006 -4771630.504 4419911.110 10 0 59989 26100.00000 0 23928156.053 -4684437.023 7520535.641 10 0 59989 27000.00000 0 22845672.084 -4406288.605 10475192.529 10 0 59989 27900.00000 0 21469084.023 -3899851.443 13226548.145 10 0 59989 28800.00000 0 19851060.525 -3137595.051 15721219.152 10 0 59989 29700.00000 0 18050795.943 -2103209.177 17910805.080 10 0 59989 30600.00000 0 16131577.360 -792548.293 19752823.716 10 0 59989 31500.00000 0 14158200.358 785936.952 21211531.619 10 0 59989 32400.00000 0 12194341.195 2611300.442 22258614.398 10 0 59989 33300.00000 0 10299994.607 4650730.517 22873733.887 10 0 59989 34200.00000 0 8529083.566 6860684.096 23044922.071 10 0 59989 35100.00000 0 6927339.937 9188479.140 22768814.392 10 0 59989 36000.00000 0 5530543.690 11574280.530 22050717.987 10 0 59989 36900.00000 0 4363193.383 13953397.981 20904513.324 10 0 59989 37800.00000 0 3437662.724 16258801.574 19352390.730 10 0 59989 38700.00000 0 2753877.835 18423751.146 17424426.267 10 0 59989 39600.00000 0 2299528.172 20384430.719 15158004.445 10 0 59989 40500.00000 0 2050801.765 22082478.547 12597098.195 10 0 59989 41400.00000 0 1973613.421 23467307.337 9791419.361 10 0 59989 42300.00000 0 2025273.733 24498117.555 6795455.700 10 0 59989 43200.00000 0 2156528.003 25145519.284 3667412.804 10 0 59989 44100.00000 0 2313878.375 25392694.315 468081.486 10 0 59989 45000.00000 0 2442090.298 25236049.319 -2740347.075 10 0 59989 45900.00000 0 2486776.373 24685332.415 -5895494.854 10 0 59989 46800.00000 0 2396947.300 23763208.024 -8936014.992 10 0 59989 47700.00000 0 2127420.840 22504307.912 -11802789.778 10 0 59989 48600.00000 0 1640985.794 20953798.434 -14440084.687 10 0 59989 49500.00000 0 910228.359 19165524.449 -16796635.454 10 0 59989 50400.00000 0 -81057.348 17199808.186 -18826646.647 10 0 59989 51300.00000 0 -1336935.144 15120995.688 -20490682.212 10 0 59989 52200.00000 0 -2848909.350 12994853.926 -21756430.786 10 0 59989 53100.00000 0 -4596042.573 10885927.587 -22599331.164 10 0 59989 54000.00000 0 -6545604.635 8854965.975 -23003046.211 10 0 59989 54900.00000 0 -8654226.332 6956527.124 -22959776.517 10 0 59989 55800.00000 0 -10869510.542 5236858.567 -22470408.138 10 0 59989 56700.00000 0 -13132034.106 3732142.365 -21544491.970 10 0 59989 57600.00000 0 -15377657.628 2467176.563 -20200055.371 10 0 59989 58500.00000 0 -17540047.381 1454546.967 -18463249.824 10 0 59989 59400.00000 0 -19553304.665 694322.506 -16367841.414 10 0 59989 60300.00000 0 -21354593.336 174285.558 -13954553.902 10 0 59989 61200.00000 0 -22886656.143 -129313.766 -11270276.966 10 0 59989 62100.00000 0 -24100115.039 -250512.371 -8367154.854 10 0 59989 63000.00000 0 -24955459.536 -231951.528 -5301573.010 10 0 59989 63900.00000 0 -25424640.088 -122828.793 -2133062.435 10 0 59989 64800.00000 0 -25492199.987 23428.181 1076856.868 10 0 59989 65700.00000 0 -25155898.582 151666.919 4265870.703 10 0 59989 66600.00000 0 -24426799.938 207587.948 7372080.268 10 0 59989 67500.00000 0 -23328823.489 140285.679 10335202.828 10 0 59989 68400.00000 0 -21897775.742 -95355.533 13097740.068 10 0 59989 69300.00000 0 -20179903.810 -536511.799 15606091.384 10 0 59989 70200.00000 0 -18230031.420 -1210607.758 17811590.688 10 0 59989 71100.00000 0 -16109355.300 -2133919.221 19671446.979 10 0 59989 72000.00000 0 -13882993.839 -3310649.863 21149570.830 10 0 59989 72900.00000 0 -11617389.941 -4732521.625 22217271.345 10 0 59989 73800.00000 0 -9377675.828 -6378897.025 22853810.590 10 0 59989 74700.00000 0 -7225108.898 -8217429.436 23046805.214 10 0 59989 75600.00000 0 -5214684.654 -10205215.492 22792467.740 10 0 59989 76500.00000 0 -3393025.203 -12290402.867 22095682.947 10 0 59989 77400.00000 0 -1796630.448 -14414187.692 20969917.649 10 0 59989 78300.00000 0 -450564.005 -16513119.565 19436965.218 10 0 59989 79200.00000 0 632372.108 -18521619.089 17526529.152 10 0 59989 80100.00000 0 1451940.249 -20374603.655 15275653.045 10 0 59989 81000.00000 0 2020235.363 -22010112.359 12728007.235 10 0 59989 81900.00000 0 2360929.014 -23371820.527 9933045.251 10 0 59989 82800.00000 0 2508021.568 -24411338.499 6945045.932 10 0 59989 83700.00000 0 2504155.757 -25090198.048 3822059.520 10 0 59989 84600.00000 0 2398563.421 -25381442.595 624778.152 10 0 59989 85500.00000 0 2244732.936 -25270753.866 -2584646.996 99